Racine, WI

8:36 PM CST on February 07, 2016 (GMT -0600)
Batten

Weather History for KRAC - March, 2012

Change the Weather History Date:

Sunday, March 11, 2012

  Actual Average (KMKE) Record (KMKE)
Temperature  
Mean Temperature 50 °F 33 °F  
Max Temperature 60 °F 41 °F 66 °F (2012)
Min Temperature 39 °F 26 °F 2 °F (1948)
Degree Days  
Heating Degree Days 16 32  
Month to date heating degree days 367  
Since 1 July heating degree days 5347  
Cooling Degree Days 0 0  
Month to date cooling degree days 0  
Year to date cooling degree days 0  
Moisture  
Dew Point 31 °F    
Average Humidity 52    
Maximum Humidity 80    
Minimum Humidity 31    
Precipitation  
Precipitation 0.03 in 0.07 in 1.01 in (1898)
Month to date precipitation 0.71  
Year to date precipitation 4.12  
Snow  
Snow 0.00 in 0.30 in 4.50 in (1896)
Month to date snowfall 3.4  
Since 1 July snowfall 41.2  
Snow Depth -    
Sea Level Pressure  
Sea Level Pressure 30.16 in    
Wind  
Wind Speed 11 mph (South)    
Max Wind Speed 16 mph    
Max Gust Speed 21 mph    
Visibility 10 miles    
Events Rain    
T = Trace of Precipitation, MM = Missing Value Source: NWS Daily Summary

Daily Weather History Graph

Daily Weather History Graph

Search for Another Location

Airport or City:

Trip Planner

Search our weather history database for the weather conditions in past years. The results will help you decide how hot, cold, wet, or windy it might be!

Date:

Astronomy

Mar. 11, 2012 Rise Set
Actual Time 7:09 AM CDT 6:53 PM CDT
Civil Twilight 6:41 AM CDT 7:21 PM CDT
Nautical Twilight 6:08 AM CDT 7:54 PM CDT
Astronomical Twilight 5:35 AM CDT 8:27 PM CDT
Moon 11:25 PM CDT (3/11) 8:37 AM CDT (3/11)
Length of Visible Light 12h 40m
Length of Day
11h 44m
Waning Gibbous, 85% of the Moon is Illuminated
Mar 11
Waning Gibbous
Mar 14
Last Quarter
Mar 22
New
Mar 30
First Quarter
Apr 6
Full

Hourly Weather History & Observations

Time (CDT) Temp. Windchill Dew Point Humidity Pressure Visibility Wind Dir Wind Speed Gust Speed Precip Events Conditions
12:53 AM 46.9 °F - 28.9 °F 50% 30.20 in 10.0 mi SW 12.7 mph - N/A   Clear
1:53 AM 45.0 °F 39.3 °F 28.9 °F 53% 30.21 in 10.0 mi SW 11.5 mph - N/A   Clear
3:53 AM 43.0 °F 38.8 °F 28.0 °F 56% 30.20 in 10.0 mi SW 6.9 mph - N/A   Clear
4:53 AM 42.1 °F 37.1 °F 28.0 °F 58% 30.21 in 10.0 mi SW 8.1 mph - N/A   Clear
5:53 AM 41.0 °F 35.8 °F 28.0 °F 60% 30.22 in 10.0 mi SW 8.1 mph - N/A   Clear
7:53 AM 39.9 °F 35.8 °F 28.0 °F 63% 30.24 in 10.0 mi SW 5.8 mph - N/A   Clear
8:53 AM 45.0 °F 39.7 °F 28.9 °F 53% 30.25 in 10.0 mi SSW 10.4 mph - N/A   Clear
9:53 AM 50.0 °F - 28.9 °F 44% 30.26 in 10.0 mi SW 11.5 mph - N/A   Clear
10:53 AM 55.9 °F - 30.9 °F 39% 30.25 in 10.0 mi SW 12.7 mph 18.4 mph N/A   Clear
11:53 AM 59.0 °F - 28.0 °F 31% 30.24 in 10.0 mi WSW 12.7 mph 20.7 mph N/A   Clear
1:53 PM 60.1 °F - 30.0 °F 32% 30.19 in 10.0 mi SSE 12.7 mph - N/A   Clear
2:53 PM 55.9 °F - 28.9 °F 36% 30.17 in 10.0 mi SSE 16.1 mph - N/A   Clear
3:53 PM 54.0 °F - 30.0 °F 40% 30.15 in 10.0 mi South 16.1 mph 20.7 mph N/A   Clear
4:53 PM 54.0 °F - 30.0 °F 40% 30.13 in 10.0 mi South 12.7 mph - N/A   Clear
5:53 PM 52.0 °F - 30.0 °F 43% 30.13 in 10.0 mi South 12.7 mph - N/A   Clear
6:53 PM 50.0 °F - 30.9 °F 48% 30.12 in 10.0 mi SSE 11.5 mph - N/A   Clear
7:53 PM 46.9 °F - 32.0 °F 56% 30.11 in 10.0 mi SSE 5.8 mph - N/A   Clear
8:53 PM 48.0 °F - 34.0 °F 58% 30.10 in 10.0 mi SSE 10.4 mph - N/A   Clear
9:53 PM 48.0 °F - 36.0 °F 63% 30.09 in 10.0 mi South 8.1 mph - N/A   Overcast
10:53 PM 48.0 °F - 39.0 °F 71% 30.06 in 10.0 mi SSE 9.2 mph - 0.00 in   Overcast
11:53 PM 48.0 °F - 39.9 °F 74% 30.05 in 10.0 mi South 9.2 mph - 0.00 in Rain Light Rain
12:53 AM 46.9 °F - 41.0 °F 80% 30.02 in 8.0 mi South 9.2 mph - 0.03 in Rain Light Rain